www.pogodaiklimat.ru

Погода и климат >> Архив погоды >> Боливия >> Cobija


ПОГОДА в Cobija

  • Прогноз погоды в Cobija
  • Монитор погоды в Cobija
  • Климат города

АРХИВ ПОГОДЫ в Cobija

Время (UTC), дата Ветер
(напр.,м/с)
 
Видим.   Явления Облачность Т
(С)
Тd
(С)
f
(%)
Тe
(С)
Тes
(С)
Комфортность P
(гПа)
Po
(гПа)
Тmin
(С)
Tmax
(С)
R
(мм)
R24
(мм)
S
(см)
18 10.07 Ю 6 15 км дым ясно +23.2 +11.9 49 +26 +32 жарко 1020.2 993.1
21 10.07 Ю 4 10 км дым ясно +23.5 +13.3 53 +26 +27 жарко 1018.0 991.0 +24.1
12 11.07 Ю 3 15 км дым 1/0
[Ci fib]
+15.0 +11.4 79 +14 +16 1020.2 992.3 +13.6
15 11.07 ЮВ 4 15 км дым 1/0
[Ci fib]
+21.6 +11.9 54 +24 +33 комфорт 1020.3 993.0
18 11.07 Ю 2 15 км дым ясно +25.8 +14.6 50 +28 +43 жарко 1016.8 990.0
21 11.07 штиль 0 15 км дым ясно +26.7 +15.4 50 +30 +32 душно 1015.4 988.8 +27.5
12 12.07 штиль 0 15 км дым 1/0 2000 м
[Ac trans]
+17.5 +14.7 84 +17 +19 1018.6 991.0 +14.8
15 12.07 ЮВ 2 15 км дым ясно +25.7 +15.7 54 +29 +43 душно 1019.0 992.2
18 12.07 штиль 0 15 км дым ясно +29.2 +17.4 49 +33 +51 опасность
солнечного
удара
1016.8 990.4
21 12.07 СЗ 2 15 км дым ясно +30.0 +17.8 48 +34 +36 очень
душно
1015.1 988.8 +31.3
12 13.07 штиль 0 10 км дым 9/0 2000 м
[Ac trans]
+19.8 +17.4 86 +22 +23 комфорт 1018.2 990.8 +17.0
15 13.07 штиль 0 15 км дым 1/0 2000 м
[Ac trans]
+29.2 +20.1 58 +36 +52 опасность
солнечного
удара
1017.5 991.0
18 13.07 ЮЗ 3 15 км дым 4/3 900 м
[Cu hum Ac trans Ci fib]
+33.0 +19.5 45 +39 +46 очень
душно
1015.3 989.2
21 13.07 ЮЗ 3 15 км дым 5/1 900 м
[Cu med, cong Ac trans]
+30.9 +19.6 51 +37 +38 очень
душно
1013.6 987.4 +33.5
12 14.07 штиль 0 10 км дым 8/0 2000 м
[Ac trans]
+22.3 +20.9 92 +29 +30 очень
душно
1015.7 988.6 +21.3
15 14.07 З 4 15 км дым 3/1 800 м
[Cu hum Ac trans]
+30.0 +21.7 61 +38 +46 очень
душно
1016.3 989.9
18 14.07 З 4 15 км дым 6/6 900 м
[Cu med, cong]
+32.0 +21.9 55 +41 +44 опасность
перегрева
1014.0 987.8
21 14.07 С 4 15 км дым 4/3 900 м
[Cu med, cong Ac trans]
+32.0 +20.9 52 +39 +40 очень
душно
1012.1 986.0 +33.7
12 15.07 штиль 0 8000 м дым ясно +22.0 +20.8 93 +28 +30 душно 1015.0 987.9 +20.1
15 15.07 З 5 15 км дым 1/1 900 м
[Cu hum]
+29.8 +21.7 62 +38 +45 очень
душно
1015.4 989.0
18 15.07 СЗ 4 15 км дым 6/6 900 м
[Cu hum]
+32.6 +21.5 52 +41 +44 опасность
перегрева
1013.2 987.2
21 15.07 С 5 15 км дым 1/1 900 м
[Cu hum]
+32.5 +20.5 49 +39 +40 очень
душно
1011.9 985.9 +33.7
12 16.07 штиль 0 15 км дым 1/0
[Ci fib]
+22.3 +21.1 93 +29 +31 очень
душно
1015.9 988.8 +20.3
15 16.07 СЗ 2 15 км дым 1/0
[Ci fib]
+31.3 +22.6 60 +41 +55 опасность
перегрева
1016.2 990.0
18 16.07 штиль 0 15 км дым 5/5 900 м
[Cu hum]
+33.0 +21.9 52 +41 +51 опасность
перегрева
1014.0 988.0
21 16.07 З 2 15 км дым 3/3 900 м
[Cu med, cong]
+33.8 +21.7 49 +42 +43 опасность
перегрева
1011.1 985.2 +34.5
12 17.07 штиль 0 15 км дым 4/1 600 м
[Cu Sc Ac trans]
+23.2 +21.3 89 +31 +33 очень
душно
1015.3 988.3 +21.1
15 17.07 СВ 2 15 км дым 4/3 700 м
[Cu med, cong Ac trans]
+31.3 +24.2 66 +43 +52 опасность
перегрева
1016.5 990.3

 

Местоположение метеостанции Cobija (Боливия): широта -11.03 долгота -68.78 высота над уровнем моря 235 м.

В архиве по умолчанию представлена погода в Cobija за последнюю неделю. Архивные данные за месяц целиком и за предыдущие месяцы, начиная с января 2011 года, Вы можете получить, выбрав интересующий диапазон дат из раскрывающегося списка и нажав кнопку "Ввод!".


*Определитесь, кто Вы:
робот инопланетянин человек

Внимание! Время в таблицах - всемирное. Для получения местного времени необходимо прибавить поправку, которая в Cobija равна -4 ч.

Смотрите также архив погоды в соседних городах и на ближайших метеорологических станциях:

Погода в Epitaciolandia (Бразилия) (6 км)
Погода в Rio Branco (Бразилия) (136 км)
Погода в Rio Branco (Бразилия) (157 км)
Погода в Puerto Maldonado (Перу) (181 км)
Погода в Parque Estadual Chan (Бразилия) (223 км)
Погода в Riberalta (Боливия) (292 км)
Погода в Boca do Acre (Бразилия) (296 км)
Погода в Feijo (Бразилия) (364 км)
Погода в Tarauaca (Бразилия) (385 км)
Погода в Reyes (Боливия) (395 км)

Пояснения к столбцам:

Ветер - указаны скорость ветра в м/с - средняя за 10 мин, порывы в срок и между сроками (в фигурных скобках) и направление, откуда дует ветер: С - северный, СВ - северо-восточный, В - восточный, ЮВ - юго-восточный, Ю - южный, ЮЗ - юго-западный, З - западный, СЗ - северо-западный.
Видимость - горизонтальная дальность видимости в метрах или километрах. При видимости от 1 до 10 км при отсутствии осадков обычно наблюдается дымка, при ухудшении видимости до 1 км и менее - туман. В сухую погоду видимость может ухудшаться дымом, пылью или мглою.
Явления - указаны атмосферные явления, наблюдавшиеся в срок или в последний час перед сроком; фигурными скобками обозначены явления, наблюдавшиеся между сроками (за 1-3 часа до срока); квадратными скобками обозначены град или гололедные отложения с указанием их диаметра в мм.
Облачность - указаны через наклонную черту общая и нижняя облачность в баллах и высота нижней границы облаков в метрах; квадратными скобками обозначены формы облаков: Ci - перистые, Cs - перисто-слоистые, Cc - перисто-кучевые, Ac - высококучевые, As - высокослоистые, Sc - слоисто-кучевые, Ns - слоисто-дождевые, Cu - кучевые, Cb - кучево-дождевые. Подробнее классификацию облаков см. в Атласе облаков (PDF).
T - Температура воздуха - температура, измеренная на высоте 2 м над землей.
Td - Температура точки росы - температура, при понижении до которой содержащийся в воздухе водяной пар достигнет насыщения.
f - Относительная влажность воздуха - влажноcть воздуха, измеренная на высоте 2 м над землей.
Te - Эффективная температура - температура, которую ощущает одетый по сезону человек в тени. Характеристика душности погоды. При расчете учитывается влияние влажности воздуха и скорости ветра на теплоощущения человека.
Tes - Эффективная температура на солнце - температура, которую ощущает человек, с поправкой на солнечный нагрев. Характеристика знойности погоды. Зависит от высоты солнца над горизонтом, облачности и скорости ветра. Ночью, в пасмурную погоду, а также при ветре 12 м/с и более поправка равна нулю.
P - Атмосферное давление - приведенное к уровню моря атмосферное давление.
Po - Атмосферное давление - измеренное на уровне метеостанции атмосферное давление.
Tmin - Минимальная температура - минимум температуры воздуха на высоте 2 м над землей.
Tmax - Максимальная температура - максимум температуры воздуха на высоте 2 м над землей.
R - Количество осадков - Количество выпавших осадков за период времени, мм. При наведении курсора мыши на число - период времени, за который выпало указанное количество осадков.
R24 - Количество осадков - Количество выпавших осадков за 24 часа, мм.
S - Снежный покров - Высота снежного покрова, см. При наведении курсора мыши на число - состояние снежного покрова и степень покрытия местности в баллах.